Find CloudCT-Precursor

NORAD ID: 69939 Int'l Des: NNA 2026-156 Owner: TECN Country: IL operational
LEOCIRCULARRETROGRADESSO

現在のビュー

3D地球を読み込み中...

About CloudCT-Precursor

CloudCT-Precursor (NORAD 69939) is a satellite launched Jul 7, 2026 by TECN of IL. It operates in LEO, CIRCULAR, RETROGRADE, SSO orbit with a mass of 4.00 kg.

次回通過

Passes for default location (London). Set your location on the main map for personalized predictions.

高度履歴

Loading altitude history...

軌道要素

1 69939U 26156BY 26237.95267413 .00001195 00000-0 12154-3 0 9995
2 69939 97.7519 137.6659 0009885 7.4132 352.7232 14.92583050 7402
Epoch: Aug 25, 2026 • Age: 13 hours

現在のステータス

高度 589.3 km
遠地点 / 近地点 N/A
速度 7.57 km/s
衛星直下点 37.74°N, 21.14°W
打ち上げ日 Jul 7, 2026
運用期間 0.1 years
タイプ earth observation

技術仕様

分類 Payload
質量 4.00 kg
乾燥質量 4.00 kg
総質量 4.00 kg
長さ 0.30 m
直径 0.10 m
スパン 0.30 m
形状 Box
製造者 ZFT
バスタイプ Cubesat 3U
フェーズステータス In Orbit
所有者/国 TECN/IL

Most Searched